Fallon NAS, NV

11:23 AM PST on January 22, 2018 (GMT -0800)
Fallon Naval Air Station

Weather History for KNFL - December, 2012

Change the Weather History Date:

Friday, December 14, 2012

  Actual Average Record
Temperature  
Mean Temperature 36 °F -  
Max Temperature 42 °F 46 °F 111 °F (2001)
Min Temperature 29 °F 17 °F -17 °F (1932)
Degree Days  
Heating Degree Days 30    
Moisture  
Dew Point 27 °F    
Average Humidity 75    
Maximum Humidity 100    
Minimum Humidity 42    
Precipitation  
Precipitation 0.00 in - - ()
Sea Level Pressure  
Sea Level Pressure 29.75 in    
Wind  
Wind Speed 3 mph (West)    
Max Wind Speed 12 mph    
Max Gust Speed -    
Visibility 8 miles    
Events Snow    
Averages and records for this station are not official NWS values.
T = Trace of Precipitation, MM = Missing Value Source: NWS Daily Summary

Daily Weather History Graph

Daily Weather History Graph

Search for Another Location

Airport or City:

Trip Planner

Search our weather history database for the weather conditions in past years. The results will help you decide how hot, cold, wet, or windy it might be!

Date:

Astronomy

Dec. 14, 2012 Rise Set
Actual Time 7:07 AM PST 4:32 PM PST
Civil Twilight 6:37 AM PST 5:02 PM PST
Nautical Twilight 6:03 AM PST 5:36 PM PST
Astronomical Twilight 5:30 AM PST 6:08 PM PST
Moon 8:16 AM PST (12/14) 6:30 PM PST (12/14)
Length of Visible Light 10h 25m
Length of Day
9h 24m
Waxing Crescent, 3% of the Moon is Illuminated
Dec 14
Waxing Crescent
Dec 19
First Quarter
Dec 28
Full
Jan 4
Last Quarter
Jan 11
New

Hourly Weather History & Observations

Time (PST) Temp. Windchill Dew Point Humidity Pressure Visibility Wind Dir Wind Speed Gust Speed Precip Events Conditions
12:56 AM - - - N/A% 29.72 in - North - - N/A   Unknown
1:56 AM - - - N/A% 29.71 in - North - - N/A   Unknown
3:56 AM - - - N/A% 29.68 in - North - - N/A   Unknown
4:56 AM - - - N/A% 29.67 in - North - - N/A   Unknown
5:56 AM - - - N/A% 29.69 in - North - - N/A   Unknown
6:14 AM 32.0 °F - 26.6 °F 80% 29.74 in 10.0 mi Calm Calm - N/A   Overcast
6:56 AM 30.6 °F - 27.0 °F 86% 29.68 in 10.0 mi Calm Calm - N/A   Mostly Cloudy
7:56 AM 29.3 °F - 27.7 °F 94% 29.69 in 10.0 mi Calm Calm - N/A   Mostly Cloudy
8:56 AM 32.9 °F - 27.7 °F 81% 29.71 in 10.0 mi Calm Calm - N/A   Mostly Cloudy
9:56 AM 34.7 °F 31.8 °F 27.7 °F 76% 29.72 in 10.0 mi SSW 3.5 mph - N/A   Mostly Cloudy
10:56 AM 36.5 °F 31.8 °F 27.5 °F 70% 29.71 in 10.0 mi SSW 5.8 mph - N/A   Overcast
11:56 AM 36.5 °F 31.8 °F 27.5 °F 70% 29.69 in 10.0 mi SSW 5.8 mph - N/A   Overcast
12:56 PM 39.4 °F 34.5 °F 22.3 °F 50% 29.69 in 10.0 mi WSW 6.9 mph - N/A   Overcast
1:56 PM 42.6 °F 39.9 °F 22.1 °F 44% 29.68 in 10.0 mi West 4.6 mph - N/A   Overcast
2:56 PM 42.8 °F 41.1 °F 21.9 °F 44% 29.70 in 10.0 mi Variable 3.5 mph - N/A   Overcast
3:56 PM 41.4 °F 39.4 °F 19.8 °F 42% 29.72 in 10.0 mi Variable 3.5 mph - N/A   Overcast
4:56 PM 38.3 °F 31.9 °F 18.5 °F 45% 29.74 in 8.0 mi NNW 9.2 mph - N/A   Overcast
5:56 PM 37.0 °F 29.3 °F 21.2 °F 53% 29.78 in 10.0 mi NNW 11.5 mph - N/A   Overcast
6:56 PM 35.6 °F 28.6 °F 26.4 °F 69% 29.80 in 10.0 mi NNW 9.2 mph - N/A   Overcast
7:56 PM 32.4 °F 26.9 °F 32.0 °F 99% 29.81 in 2.0 mi NNW 5.8 mph - N/A Snow Light Snow
8:10 PM 33.8 °F 30.8 °F 32.0 °F 93% 29.88 in 5.0 mi Variable 3.5 mph - N/A Snow Light Snow
8:56 PM 31.1 °F 27.7 °F 31.1 °F 100% 29.82 in 5.0 mi Variable 3.5 mph - 0.00 in   Overcast
9:11 PM 32.0 °F 28.7 °F 32.0 °F 100% 29.89 in 2.0 mi Variable 3.5 mph - N/A Snow Light Snow
9:56 PM 32.4 °F 29.1 °F 32.4 °F 100% 29.82 in 6.0 mi Variable 3.5 mph - 0.00 in Snow Light Snow
10:15 PM 32.0 °F 28.7 °F 32.0 °F 100% 29.90 in 2.0 mi Variable 3.5 mph - N/A Snow Light Snow
10:56 PM - - - N/A% 29.82 in - North - - N/A   Unknown
11:56 PM - - - N/A% 29.84 in - North - - N/A   Unknown